Year,Month,Day,Hour,Minute,Value (Times are PST for insolation in W/m^2)
2013,06,26,00,00,0.00
2013,06,26,00,01,0.00
2013,06,26,00,02,0.00
2013,06,26,00,03,0.00
2013,06,26,00,04,0.00
2013,06,26,00,05,0.00
2013,06,26,00,06,0.00
2013,06,26,00,07,0.00
2013,06,26,00,08,0.00
2013,06,26,00,09,0.00
2013,06,26,00,10,0.00
2013,06,26,00,11,0.00
2013,06,26,00,12,0.00
2013,06,26,00,13,0.00
2013,06,26,00,14,0.00
2013,06,26,00,15,0.00
2013,06,26,00,16,0.00
2013,06,26,00,17,0.00
2013,06,26,00,18,0.00
2013,06,26,00,19,0.00
2013,06,26,00,20,0.00
2013,06,26,00,21,0.00
2013,06,26,00,22,0.00
2013,06,26,00,23,0.00
2013,06,26,00,24,0.00
2013,06,26,00,25,0.00
2013,06,26,00,26,0.00
2013,06,26,00,27,0.00
2013,06,26,00,28,0.00
2013,06,26,00,29,0.00
2013,06,26,00,30,0.00
2013,06,26,00,31,0.00
2013,06,26,00,32,0.00
2013,06,26,00,33,0.00
2013,06,26,00,34,0.00
2013,06,26,00,35,0.00
2013,06,26,00,36,0.00
2013,06,26,00,37,0.00
2013,06,26,00,38,0.00
2013,06,26,00,39,0.00
2013,06,26,00,40,0.00
2013,06,26,00,41,0.00
2013,06,26,00,42,0.00
2013,06,26,00,43,0.00
2013,06,26,00,44,0.00
2013,06,26,00,45,0.00
2013,06,26,00,46,0.00
2013,06,26,00,47,0.00
2013,06,26,00,48,0.00
2013,06,26,00,49,0.00
2013,06,26,00,50,0.00
2013,06,26,00,51,0.00
2013,06,26,00,52,0.00
2013,06,26,00,53,0.00
2013,06,26,00,54,0.00
2013,06,26,00,55,0.00
2013,06,26,00,56,0.00
2013,06,26,00,57,0.00
2013,06,26,00,58,0.00
2013,06,26,00,59,0.00
2013,06,26,01,00,0.00
2013,06,26,01,01,0.00
2013,06,26,01,02,0.00
2013,06,26,01,03,0.00
2013,06,26,01,04,0.00
2013,06,26,01,05,0.00
2013,06,26,01,06,0.00
2013,06,26,01,07,0.00
2013,06,26,01,08,0.00
2013,06,26,01,09,0.00
2013,06,26,01,10,0.00
2013,06,26,01,11,0.00
2013,06,26,01,12,0.00
2013,06,26,01,13,0.00
2013,06,26,01,14,0.00
2013,06,26,01,15,0.00
2013,06,26,01,16,0.00
2013,06,26,01,17,0.00
2013,06,26,01,18,0.00
2013,06,26,01,19,0.00
2013,06,26,01,20,0.00
2013,06,26,01,21,0.00
2013,06,26,01,22,0.00
2013,06,26,01,23,0.00
2013,06,26,01,24,0.00
2013,06,26,01,25,0.00
2013,06,26,01,26,0.00
2013,06,26,01,27,0.00
2013,06,26,01,28,0.00
2013,06,26,01,29,0.00
2013,06,26,01,30,0.00
2013,06,26,01,31,0.00
2013,06,26,01,32,0.00
2013,06,26,01,33,0.00
2013,06,26,01,34,0.00
2013,06,26,01,35,0.00
2013,06,26,01,36,0.00
2013,06,26,01,37,0.00
2013,06,26,01,38,0.00
2013,06,26,01,39,0.00
2013,06,26,01,40,0.00
2013,06,26,01,41,0.00
2013,06,26,01,42,0.00
2013,06,26,01,43,0.00
2013,06,26,01,44,0.00
2013,06,26,01,45,0.00
2013,06,26,01,46,0.00
2013,06,26,01,47,0.00
2013,06,26,01,48,0.00
2013,06,26,01,49,0.00
2013,06,26,01,50,0.00
2013,06,26,01,51,0.00
2013,06,26,01,52,0.00
2013,06,26,01,53,0.00
2013,06,26,01,54,0.00
2013,06,26,01,55,0.00
2013,06,26,01,56,0.00
2013,06,26,01,57,0.00
2013,06,26,01,58,0.00
2013,06,26,01,59,0.00
2013,06,26,02,00,0.00
2013,06,26,02,01,0.00
2013,06,26,02,02,0.00
2013,06,26,02,03,0.00
2013,06,26,02,04,0.00
2013,06,26,02,05,0.00
2013,06,26,02,06,0.00
2013,06,26,02,07,0.00
2013,06,26,02,08,0.00
2013,06,26,02,09,0.00
2013,06,26,02,10,0.00
2013,06,26,02,11,0.00
2013,06,26,02,12,0.00
2013,06,26,02,13,0.00
2013,06,26,02,14,0.00
2013,06,26,02,15,0.00
2013,06,26,02,16,0.00
2013,06,26,02,17,0.00
2013,06,26,02,18,0.00
2013,06,26,02,19,0.00
2013,06,26,02,20,0.00
2013,06,26,02,21,0.00
2013,06,26,02,22,0.00
2013,06,26,02,23,0.00
2013,06,26,02,24,0.00
2013,06,26,02,25,0.00
2013,06,26,02,26,0.00
2013,06,26,02,27,0.00
2013,06,26,02,28,0.00
2013,06,26,02,29,0.00
2013,06,26,02,30,0.00
2013,06,26,02,31,0.00
2013,06,26,02,32,0.00
2013,06,26,02,33,0.00
2013,06,26,02,34,0.00
2013,06,26,02,35,0.00
2013,06,26,02,36,0.00
2013,06,26,02,37,0.00
2013,06,26,02,38,0.00
2013,06,26,02,39,0.00
2013,06,26,02,40,0.00
2013,06,26,02,41,0.00
2013,06,26,02,42,0.00
2013,06,26,02,43,0.00
2013,06,26,02,44,0.00
2013,06,26,02,45,0.00
2013,06,26,02,46,0.00
2013,06,26,02,47,0.00
2013,06,26,02,48,0.00
2013,06,26,02,49,0.00
2013,06,26,02,50,0.00
2013,06,26,02,51,0.00
2013,06,26,02,52,0.00
2013,06,26,02,53,0.00
2013,06,26,02,54,0.00
2013,06,26,02,55,0.00
2013,06,26,02,56,0.00
2013,06,26,02,57,0.00
2013,06,26,02,58,0.00
2013,06,26,02,59,0.00
2013,06,26,03,00,0.00
2013,06,26,03,01,0.00
2013,06,26,03,02,0.00
2013,06,26,03,06,0.00
2013,06,26,03,07,0.00
2013,06,26,03,08,0.00
2013,06,26,03,09,0.00
2013,06,26,03,10,0.00
2013,06,26,03,11,0.00
2013,06,26,03,12,0.00
2013,06,26,03,13,0.00
2013,06,26,03,14,0.00
2013,06,26,03,15,0.00
2013,06,26,03,16,0.00
2013,06,26,03,17,0.00
2013,06,26,03,18,0.00
2013,06,26,03,19,0.00
2013,06,26,03,20,0.00
2013,06,26,03,21,0.00
2013,06,26,03,22,0.00
2013,06,26,03,23,0.00
2013,06,26,03,24,0.00
2013,06,26,03,25,0.00
2013,06,26,03,26,0.00
2013,06,26,03,27,0.00
2013,06,26,03,28,0.00
2013,06,26,03,29,0.00
2013,06,26,03,30,0.00
2013,06,26,03,31,0.00
2013,06,26,03,32,0.00
2013,06,26,03,33,0.00
2013,06,26,03,34,0.00
2013,06,26,03,35,0.00
2013,06,26,03,36,0.00
2013,06,26,03,37,0.00
2013,06,26,03,38,0.00
2013,06,26,03,39,0.00
2013,06,26,03,40,0.00
2013,06,26,03,41,0.00
2013,06,26,03,42,0.00
2013,06,26,03,43,0.00
2013,06,26,03,44,0.00
2013,06,26,03,45,0.00
2013,06,26,03,46,0.00
2013,06,26,03,47,0.00
2013,06,26,03,48,0.00
2013,06,26,03,49,0.00
2013,06,26,03,50,0.00
2013,06,26,03,51,0.00
2013,06,26,03,52,0.00
2013,06,26,03,53,0.00
2013,06,26,03,54,0.00
2013,06,26,03,55,0.00
2013,06,26,03,56,0.00
2013,06,26,03,57,0.00
2013,06,26,03,58,0.00
2013,06,26,03,59,0.00
2013,06,26,04,00,0.00
2013,06,26,04,01,0.00
2013,06,26,04,02,0.00
2013,06,26,04,03,0.00
2013,06,26,04,04,0.00
2013,06,26,04,05,0.00
2013,06,26,04,06,0.00
2013,06,26,04,07,0.00
2013,06,26,04,08,0.00
2013,06,26,04,09,0.00
2013,06,26,04,10,0.00
2013,06,26,04,11,0.00
2013,06,26,04,12,0.00
2013,06,26,04,13,0.00
2013,06,26,04,14,0.00
2013,06,26,04,15,0.00
2013,06,26,04,16,0.00
2013,06,26,04,17,0.00
2013,06,26,04,18,0.00
2013,06,26,04,19,0.00
2013,06,26,04,20,0.00
2013,06,26,04,21,0.00
2013,06,26,04,22,0.00
2013,06,26,04,23,0.00
2013,06,26,04,24,0.00
2013,06,26,04,25,0.00
2013,06,26,04,26,0.00
2013,06,26,04,27,0.00
2013,06,26,04,28,0.00
2013,06,26,04,29,0.00
2013,06,26,04,30,0.00
2013,06,26,04,31,0.00
2013,06,26,04,32,0.00
2013,06,26,04,33,0.00
2013,06,26,04,34,0.00
2013,06,26,04,35,0.00
2013,06,26,04,36,0.00
2013,06,26,04,37,0.00
2013,06,26,04,38,0.00
2013,06,26,04,39,0.00
2013,06,26,04,40,0.00
2013,06,26,04,41,0.00
2013,06,26,04,42,0.00
2013,06,26,04,43,0.00
2013,06,26,04,44,0.00
2013,06,26,04,45,0.00
2013,06,26,04,46,0.00
2013,06,26,04,47,0.00
2013,06,26,04,48,0.00
2013,06,26,04,49,0.00
2013,06,26,04,50,0.00
2013,06,26,04,51,0.00
2013,06,26,04,52,0.00
2013,06,26,04,53,0.00
2013,06,26,04,54,0.00
2013,06,26,04,55,0.00
2013,06,26,04,56,0.00
2013,06,26,04,57,0.00
2013,06,26,04,58,0.00
2013,06,26,04,59,0.00
2013,06,26,05,00,0.00
2013,06,26,05,01,0.00
2013,06,26,05,02,0.00
2013,06,26,05,03,0.00
2013,06,26,05,04,0.00
2013,06,26,05,05,0.00
2013,06,26,05,06,0.00
2013,06,26,05,07,0.00
2013,06,26,05,08,0.00
2013,06,26,05,09,0.00
2013,06,26,05,10,0.00
2013,06,26,05,11,0.00
2013,06,26,05,12,0.00
2013,06,26,05,13,0.00
2013,06,26,05,14,0.00
2013,06,26,05,15,0.00
2013,06,26,05,16,0.00
2013,06,26,05,17,0.00
2013,06,26,05,18,0.00
2013,06,26,05,19,0.00
2013,06,26,05,20,0.00
2013,06,26,05,21,0.00
2013,06,26,05,22,0.00
2013,06,26,05,23,0.00
2013,06,26,05,24,0.00
2013,06,26,05,25,0.00
2013,06,26,05,26,0.00
2013,06,26,05,27,0.00
2013,06,26,05,28,1.80
2013,06,26,05,29,5.00
2013,06,26,05,30,5.80
2013,06,26,05,31,7.00
2013,06,26,05,32,7.00
2013,06,26,05,33,7.00
2013,06,26,05,34,8.20
2013,06,26,05,35,9.00
2013,06,26,05,36,9.00
2013,06,26,05,37,9.00
2013,06,26,05,38,10.60
2013,06,26,05,39,11.80
2013,06,26,05,40,12.00
2013,06,26,05,41,13.80
2013,06,26,05,42,15.90
2013,06,26,05,43,16.00
2013,06,26,05,44,16.00
2013,06,26,05,45,16.00
2013,06,26,05,46,16.00
2013,06,26,05,47,16.30
2013,06,26,05,48,18.00
2013,06,26,05,49,18.00
2013,06,26,05,50,18.00
2013,06,26,05,51,18.00
2013,06,26,05,52,18.40
2013,06,26,05,53,19.00
2013,06,26,05,54,19.00
2013,06,26,05,55,21.20
2013,06,26,05,56,24.10
2013,06,26,05,57,25.60
2013,06,26,05,58,27.30
2013,06,26,05,59,28.00
2013,06,26,06,00,28.00
2013,06,26,06,01,28.00
2013,06,26,06,02,29.70
2013,06,26,06,03,30.00
2013,06,26,06,04,31.80
2013,06,26,06,05,32.00
2013,06,26,06,06,33.00
2013,06,26,06,07,33.10
2013,06,26,06,08,35.00
2013,06,26,06,09,35.60
2013,06,26,06,10,39.20
2013,06,26,06,11,40.40
2013,06,26,06,12,43.00
2013,06,26,06,13,46.30
2013,06,26,06,14,47.70
2013,06,26,06,15,49.70
2013,06,26,06,16,51.00
2013,06,26,06,17,51.00
2013,06,26,06,18,51.00
2013,06,26,06,19,49.90
2013,06,26,06,20,49.00
2013,06,26,06,21,47.00
2013,06,26,06,22,44.60
2013,06,26,06,23,44.00
2013,06,26,06,24,44.00
2013,06,26,06,25,44.00
2013,06,26,06,26,45.70
2013,06,26,06,27,46.00
2013,06,26,06,28,48.80
2013,06,26,06,29,52.80
2013,06,26,06,30,56.20
2013,06,26,06,31,60.50
2013,06,26,06,32,63.30
2013,06,26,06,33,65.60
2013,06,26,06,34,69.20
2013,06,26,06,35,70.00
2013,06,26,06,36,71.40
2013,06,26,06,37,74.70
2013,06,26,06,38,76.00
2013,06,26,06,39,76.00
2013,06,26,06,40,76.00
2013,06,26,06,41,76.60
2013,06,26,06,42,78.20
2013,06,26,06,43,80.30
2013,06,26,06,44,82.30
2013,06,26,06,45,83.70
2013,06,26,06,46,88.40
2013,06,26,06,47,88.50
2013,06,26,06,48,89.60
2013,06,26,06,49,90.00
2013,06,26,06,50,90.90
2013,06,26,06,51,91.00
2013,06,26,06,52,93.00
2013,06,26,06,53,93.10
2013,06,26,06,54,95.40
2013,06,26,06,55,98.60
2013,06,26,06,56,103.00
2013,06,26,06,57,108.80
2013,06,26,06,58,116.70
2013,06,26,06,59,126.80
2013,06,26,07,00,134.00
2013,06,26,07,01,136.80
2013,06,26,07,02,138.30
2013,06,26,07,03,135.90
2013,06,26,07,04,135.90
2013,06,26,07,05,130.40
2013,06,26,07,06,122.80
2013,06,26,07,07,111.80
2013,06,26,07,08,104.90
2013,06,26,07,09,104.00
2013,06,26,07,10,104.00
2013,06,26,07,11,104.80
2013,06,26,07,12,105.00
2013,06,26,07,13,104.10
2013,06,26,07,14,104.00
2013,06,26,07,15,98.30
2013,06,26,07,16,90.00
2013,06,26,07,17,90.00
2013,06,26,07,18,91.20
2013,06,26,07,19,104.80
2013,06,26,07,20,147.20
2013,06,26,07,21,193.60
2013,06,26,07,22,209.70
2013,06,26,07,23,232.60
2013,06,26,07,24,225.00
2013,06,26,07,25,233.10
2013,06,26,07,26,288.00
2013,06,26,07,27,339.50
2013,06,26,07,28,321.20
2013,06,26,07,29,308.00
2013,06,26,07,30,328.10
2013,06,26,07,31,363.50
2013,06,26,07,32,374.00
2013,06,26,07,33,253.20
2013,06,26,07,34,262.20
2013,06,26,07,35,269.50
2013,06,26,07,36,231.20
2013,06,26,07,37,213.70
2013,06,26,07,38,218.00
2013,06,26,07,39,220.10
2013,06,26,07,40,260.00
2013,06,26,07,41,255.60
2013,06,26,07,42,227.40
2013,06,26,07,43,209.00
2013,06,26,07,44,205.30
2013,06,26,07,45,192.30
2013,06,26,07,46,187.40
2013,06,26,07,47,193.70
2013,06,26,07,48,222.50
2013,06,26,07,49,237.50
2013,06,26,07,50,211.20
2013,06,26,07,51,201.10
2013,06,26,07,52,231.50
2013,06,26,07,53,253.00
2013,06,26,07,54,253.00
2013,06,26,07,55,322.80
2013,06,26,07,56,346.00
2013,06,26,07,57,207.10
2013,06,26,07,58,197.10
2013,06,26,07,59,208.10
2013,06,26,08,00,239.40
2013,06,26,08,01,302.00
2013,06,26,08,02,328.60
2013,06,26,08,03,404.40
2013,06,26,08,04,463.30
2013,06,26,08,05,422.00
2013,06,26,08,06,422.00
2013,06,26,08,07,422.00
2013,06,26,08,08,422.00
2013,06,26,08,09,371.60
2013,06,26,08,10,276.40
2013,06,26,08,11,269.50
2013,06,26,08,12,257.80
2013,06,26,08,13,251.00
2013,06,26,08,14,256.40
2013,06,26,08,15,226.50
2013,06,26,08,16,217.40
2013,06,26,08,17,208.30
2013,06,26,08,18,187.80
2013,06,26,08,19,157.50
2013,06,26,08,20,133.80
2013,06,26,08,21,118.20
2013,06,26,08,22,103.40
2013,06,26,08,23,93.40
2013,06,26,08,24,88.00
2013,06,26,08,25,88.60
2013,06,26,08,26,101.10
2013,06,26,08,27,112.60
2013,06,26,08,28,121.40
2013,06,26,08,29,122.50
2013,06,26,08,30,119.70
2013,06,26,08,31,114.50
2013,06,26,08,32,110.30
2013,06,26,08,33,109.80
2013,06,26,08,34,111.80
2013,06,26,08,35,113.00
2013,06,26,08,36,117.00
2013,06,26,08,37,126.40
2013,06,26,08,38,134.40
2013,06,26,08,39,140.20
2013,06,26,08,40,146.20
2013,06,26,08,41,153.60
2013,06,26,08,42,157.50
2013,06,26,08,43,154.00
2013,06,26,08,44,153.00
2013,06,26,08,45,153.00
2013,06,26,08,46,151.10
2013,06,26,08,47,146.00
2013,06,26,08,48,144.10
2013,06,26,08,49,145.60
2013,06,26,08,50,142.30
2013,06,26,08,51,145.70
2013,06,26,08,52,156.00
2013,06,26,08,53,158.80
2013,06,26,08,54,153.90
2013,06,26,08,55,152.10
2013,06,26,08,56,161.40
2013,06,26,08,57,163.20
2013,06,26,08,58,163.50
2013,06,26,08,59,177.90
2013,06,26,09,00,185.50
2013,06,26,09,01,185.00
2013,06,26,09,02,185.00
2013,06,26,09,03,185.00
2013,06,26,09,04,193.40
2013,06,26,09,05,181.20
2013,06,26,09,06,172.80
2013,06,26,09,07,183.80
2013,06,26,09,08,186.00
2013,06,26,09,09,191.70
2013,06,26,09,10,190.10
2013,06,26,09,11,203.10
2013,06,26,09,12,224.10
2013,06,26,09,13,236.40
2013,06,26,09,14,250.00
2013,06,26,09,15,254.40
2013,06,26,09,16,271.80
2013,06,26,09,17,271.00
2013,06,26,09,18,265.40
2013,06,26,09,19,255.80
2013,06,26,09,20,257.00
2013,06,26,09,21,257.50
2013,06,26,09,22,258.00
2013,06,26,09,23,258.00
2013,06,26,09,24,258.00
2013,06,26,09,25,253.60
2013,06,26,09,26,251.00
2013,06,26,09,27,273.50
2013,06,26,09,28,307.80
2013,06,26,09,29,320.50
2013,06,26,09,30,314.80
2013,06,26,09,31,314.70
2013,06,26,09,32,311.20
2013,06,26,09,33,286.30
2013,06,26,09,34,265.10
2013,06,26,09,35,267.00
2013,06,26,09,36,271.90
2013,06,26,09,37,299.70
2013,06,26,09,38,292.60
2013,06,26,09,39,287.70
2013,06,26,09,40,289.00
2013,06,26,09,41,300.00
2013,06,26,09,42,311.80
2013,06,26,09,43,313.80
2013,06,26,09,44,319.50
2013,06,26,09,45,328.50
2013,06,26,09,46,335.90
2013,06,26,09,47,343.20
2013,06,26,09,48,341.60
2013,06,26,09,49,315.00
2013,06,26,09,50,304.80
2013,06,26,09,51,328.50
2013,06,26,09,52,341.50
2013,06,26,09,53,345.40
2013,06,26,09,54,364.00
2013,06,26,09,55,367.00
2013,06,26,09,56,373.00
2013,06,26,09,57,416.50
2013,06,26,09,58,407.90
2013,06,26,09,59,441.40
2013,06,26,10,00,427.40
2013,06,26,10,01,397.80
2013,06,26,10,02,380.00
2013,06,26,10,03,380.00
2013,06,26,10,04,382.80
2013,06,26,10,05,388.00
2013,06,26,10,06,407.80
2013,06,26,10,07,434.80
2013,06,26,10,08,438.50
2013,06,26,10,09,434.60
2013,06,26,10,10,427.50
2013,06,26,10,11,423.10
2013,06,26,10,12,422.00
2013,06,26,10,13,413.20
2013,06,26,10,14,400.20
2013,06,26,10,15,391.40
2013,06,26,10,16,390.00
2013,06,26,10,17,398.10
2013,06,26,10,18,440.80
2013,06,26,10,19,446.00
2013,06,26,10,20,443.00
2013,06,26,10,21,444.60
2013,06,26,10,22,462.70
2013,06,26,10,23,501.40
2013,06,26,10,24,532.20
2013,06,26,10,25,508.20
2013,06,26,10,26,541.70
2013,06,26,10,27,476.80
2013,06,26,10,28,459.00
2013,06,26,10,29,469.10
2013,06,26,10,30,483.00
2013,06,26,10,31,483.00
2013,06,26,10,32,518.20
2013,06,26,10,33,595.60
2013,06,26,10,34,631.00
2013,06,26,10,35,631.00
2013,06,26,10,36,631.00
2013,06,26,10,37,631.00
2013,06,26,10,38,1006.20
2013,06,26,10,39,1100.00
2013,06,26,10,40,1100.00
2013,06,26,10,41,947.00
2013,06,26,10,42,939.00
2013,06,26,10,43,930.50
2013,06,26,10,44,762.60
2013,06,26,10,45,702.70
2013,06,26,10,46,621.10
2013,06,26,10,47,537.40
2013,06,26,10,48,504.00
2013,06,26,10,49,527.40
2013,06,26,10,50,527.80
2013,06,26,10,51,485.70
2013,06,26,10,52,489.80
2013,06,26,10,53,522.50
2013,06,26,10,54,533.00
2013,06,26,10,55,801.40
2013,06,26,10,56,1021.00
2013,06,26,10,57,1021.00
2013,06,26,10,58,913.20
2013,06,26,10,59,922.30
2013,06,26,11,00,995.20
2013,06,26,11,01,1013.00
2013,06,26,11,02,1013.00
2013,06,26,11,03,1013.00
2013,06,26,11,04,1013.00
2013,06,26,11,05,1013.00
2013,06,26,11,06,577.20
2013,06,26,11,07,579.10
2013,06,26,11,08,522.00
2013,06,26,11,09,501.20
2013,06,26,11,10,510.00
2013,06,26,11,11,510.00
2013,06,26,11,12,510.00
2013,06,26,11,13,510.00
2013,06,26,11,14,510.00
2013,06,26,11,15,678.00
2013,06,26,11,16,909.00
2013,06,26,11,17,909.00
2013,06,26,11,18,909.00
2013,06,26,11,19,909.00
2013,06,26,11,20,909.00
2013,06,26,11,21,909.00
2013,06,26,11,22,909.00
2013,06,26,11,23,591.00
2013,06,26,11,24,472.40
2013,06,26,11,25,438.20
2013,06,26,11,26,412.10
2013,06,26,11,27,406.40
2013,06,26,11,28,396.50
2013,06,26,11,29,381.00
2013,06,26,11,30,367.60
2013,06,26,11,31,352.90
2013,06,26,11,32,340.00
2013,06,26,11,33,336.40
2013,06,26,11,34,338.00
2013,06,26,11,35,329.00
2013,06,26,11,36,302.30
2013,06,26,11,37,285.80
2013,06,26,11,38,278.40
2013,06,26,11,39,284.50
2013,06,26,11,40,290.00
2013,06,26,11,41,268.90
2013,06,26,11,42,229.60
2013,06,26,11,43,199.20
2013,06,26,11,44,184.10
2013,06,26,11,45,184.50
2013,06,26,11,46,191.20
2013,06,26,11,47,199.80
2013,06,26,11,48,209.20
2013,06,26,11,49,220.00
2013,06,26,11,50,221.00
2013,06,26,11,51,213.40
2013,06,26,11,52,214.00
2013,06,26,11,53,214.00
2013,06,26,11,54,214.00
2013,06,26,11,55,215.40
2013,06,26,11,56,225.20
2013,06,26,11,57,234.00
2013,06,26,11,58,235.50
2013,06,26,11,59,242.30
2013,06,26,12,00,260.10
2013,06,26,12,01,282.20
2013,06,26,12,02,280.60
2013,06,26,12,03,268.50
2013,06,26,12,04,253.90
2013,06,26,12,05,238.50
2013,06,26,12,06,229.80
2013,06,26,12,07,218.60
2013,06,26,12,08,215.40
2013,06,26,12,09,232.90
2013,06,26,12,10,257.80
2013,06,26,12,11,273.60
2013,06,26,12,12,271.80
2013,06,26,12,13,264.40
2013,06,26,12,14,262.10
2013,06,26,12,15,260.60
2013,06,26,12,16,273.90
2013,06,26,12,17,311.80
2013,06,26,12,18,347.00
2013,06,26,12,19,353.00
2013,06,26,12,20,360.40
2013,06,26,12,21,389.10
2013,06,26,12,22,406.80
2013,06,26,12,23,404.00
2013,06,26,12,24,397.20
2013,06,26,12,25,372.60
2013,06,26,12,26,344.10
2013,06,26,12,27,332.00
2013,06,26,12,28,330.80
2013,06,26,12,29,320.20
2013,06,26,12,30,305.40
2013,06,26,12,31,291.90
2013,06,26,12,32,294.80
2013,06,26,12,33,323.10
2013,06,26,12,34,336.40
2013,06,26,12,35,315.00
2013,06,26,12,36,312.80
2013,06,26,12,37,295.90
2013,06,26,12,38,278.00
2013,06,26,12,39,265.40
2013,06,26,12,40,281.70
2013,06,26,12,41,314.80
2013,06,26,12,42,322.60
2013,06,26,12,43,309.50
2013,06,26,12,44,308.30
2013,06,26,12,45,325.30
2013,06,26,12,46,318.50
2013,06,26,12,47,327.80
2013,06,26,12,48,314.00
2013,06,26,12,49,308.50
2013,06,26,12,50,335.00
2013,06,26,12,51,351.60
2013,06,26,12,52,340.20
2013,06,26,12,53,329.00
2013,06,26,12,54,329.00
2013,06,26,12,55,294.50
2013,06,26,12,56,309.10
2013,06,26,12,57,356.80
2013,06,26,12,58,415.50
2013,06,26,12,59,424.00
2013,06,26,13,00,618.80
2013,06,26,13,01,568.00
2013,06,26,13,02,577.50
2013,06,26,13,03,749.00
2013,06,26,13,04,749.00
2013,06,26,13,05,686.80
2013,06,26,13,06,432.80
2013,06,26,13,07,417.00
2013,06,26,13,08,417.00
2013,06,26,13,09,417.00
2013,06,26,13,10,761.40
2013,06,26,13,11,1272.60
2013,06,26,13,12,1243.30
2013,06,26,13,13,1215.50
2013,06,26,13,14,1213.00
2013,06,26,13,15,1219.00
2013,06,26,13,16,1223.00
2013,06,26,13,17,1223.00
2013,06,26,13,18,1224.50
2013,06,26,13,19,1165.80
2013,06,26,13,20,1150.00
2013,06,26,13,21,1150.00
2013,06,26,13,22,651.40
2013,06,26,13,23,596.00
2013,06,26,13,24,596.00
2013,06,26,13,25,519.50
2013,06,26,13,26,503.60
2013,06,26,13,27,549.70
2013,06,26,13,28,608.00
2013,06,26,13,29,659.00
2013,06,26,13,30,690.80
2013,06,26,13,31,765.00
2013,06,26,13,32,704.60
2013,06,26,13,33,601.00
2013,06,26,13,34,601.00
2013,06,26,13,35,620.50
2013,06,26,13,36,608.40
2013,06,26,13,37,581.10
2013,06,26,13,38,582.00
2013,06,26,13,39,582.00
2013,06,26,13,40,595.30
2013,06,26,13,41,534.20
2013,06,26,13,42,512.00
2013,06,26,13,43,512.00
2013,06,26,13,44,512.00
2013,06,26,13,45,512.00
2013,06,26,13,46,593.50
2013,06,26,13,47,598.00
2013,06,26,13,48,1320.50
2013,06,26,13,49,1325.00
2013,06,26,13,50,1325.00
2013,06,26,13,51,1146.40
2013,06,26,13,52,426.50
2013,06,26,13,53,405.20
2013,06,26,13,54,389.80
2013,06,26,13,55,375.10
2013,06,26,13,56,366.00
2013,06,26,13,57,363.30
2013,06,26,13,58,360.00
2013,06,26,13,59,379.80
2013,06,26,14,00,417.60
2013,06,26,14,01,432.00
2013,06,26,14,02,432.00
2013,06,26,14,03,626.60
2013,06,26,14,04,710.00
2013,06,26,14,05,710.00
2013,06,26,14,06,710.00
2013,06,26,14,07,710.00
2013,06,26,14,08,1200.50
2013,06,26,14,09,1255.00
2013,06,26,14,10,1255.00
2013,06,26,14,11,984.00
2013,06,26,14,12,984.00
2013,06,26,14,13,984.00
2013,06,26,14,14,984.00
2013,06,26,14,15,984.00
2013,06,26,14,16,984.00
2013,06,26,14,17,1114.80
2013,06,26,14,18,1420.00
2013,06,26,14,19,1420.00
2013,06,26,14,20,1420.00
2013,06,26,14,21,1420.00
2013,06,26,14,22,1420.00
2013,06,26,14,23,1420.00
2013,06,26,14,24,929.80
2013,06,26,14,25,603.00
2013,06,26,14,26,603.00
2013,06,26,14,27,603.00
2013,06,26,14,28,820.90
2013,06,26,14,29,889.00
2013,06,26,14,30,889.00
2013,06,26,14,31,889.00
2013,06,26,14,32,889.00
2013,06,26,14,33,737.00
2013,06,26,14,34,717.30
2013,06,26,14,35,536.40
2013,06,26,14,36,493.10
2013,06,26,14,37,408.40
2013,06,26,14,38,359.80
2013,06,26,14,39,352.10
2013,06,26,14,40,350.00
2013,06,26,14,41,339.50
2013,06,26,14,42,316.40
2013,06,26,14,43,312.80
2013,06,26,14,44,315.00
2013,06,26,14,45,315.00
2013,06,26,14,46,351.30
2013,06,26,14,47,381.00
2013,06,26,14,48,381.00
2013,06,26,14,49,556.00
2013,06,26,14,50,631.00
